Regional Weather Roundup
Issued by NWS Northern Indiana

Home | Current Version | Previous Version | Graphics & Text | Print | Product List | Glossary On
Versions: 1 2 3 4 5 6 7 8 9 10 11 12 13 14 15 16 17 18 19 20 21 22 23 24 25 26 27 28 29 30 31 32 33 34 35 36 37 38 39 40 41 42 43 44 45 46 47 48 49 50
000
ASUS43 KIWX 041510
RWRIWX

KIWX WEATHER ROUNDUP
NATIONAL WEATHER SERVICE NORTHERN INDIANA
1000 AM EST SUN DEC 04 2016

NOTE: "FAIR" INDICATES FEW OR NO CLOUDS BELOW 12,000 FEET WITH NO
SIGNIFICANT WEATHER AND/OR OBSTRUCTIONS TO VISIBILITY.

* THESE STATIONS ARE NOT UNDER NWS QUALITY CONTROL. THEY ALSO MAY NOT
  REPORT WEATHER SUCH AS PRECIPITATION OR FOG.

INZ001>027-041600-
NORTHERN INDIANA

CITY           SKY/WX    TMP DP  RH WIND       PRES   REMARKS
GARY*          CLOUDY    34  28  80 SE6       30.15F WCI  29
VALPARAISO     CLOUDY    33  27  78 E8        30.13F WCI  26
MICHIGAN CITY* CLOUDY    32  28  86 CALM      30.15F
LAPORTE*       MOSUNNY   34  34 100 E6        30.16F WCI  29
KNOX*          CLOUDY    32  14  47 E6        30.14F WCI  26
SOUTH BEND     CLOUDY    33  27  78 E7        30.16F WCI  27
ELKHART*       CLOUDY    34  27  75 E8        30.16F WCI  27
GOSHEN         CLOUDY    35  26  69 SE9       30.16F WCI  28
MONTICELLO*    CLOUDY    34  26  74 E5        30.11F WCI  30
LOGANSPORT*    CLOUDY    34  30  86 E7        30.14F WCI  28
ROCHESTER*     CLOUDY    36  32  87 SE6       30.15F
WARSAW*        CLOUDY    34  27  75 SE6       30.16F WCI  29
ANGOLA*        PTSUNNY   34  27  75 SE6       30.17F WCI  29
FORT WAYNE     CLOUDY    34  29  82 SE7       30.17F WCI  28
HUNTINGTON*    CLOUDY    33  30  86 SE5       30.16F WCI  29
PERU/GRISSOM   CLOUDY    34  32  92 E8        30.12F WCI  27
MARION*        CLOUDY    34  31  89 E8        30.15F WCI  27

$$
INZ028>050-041600-
CENTRAL INDIANA

CITY           SKY/WX    TMP DP  RH WIND       PRES   REMARKS
LAFAYETTE      CLOUDY    35  30  82 E9        30.11F WCI  28
KOKOMO*        CLOUDY    34  31  88 E9        30.14F WCI  27
MUNCIE*        PTSUNNY   38  30  73 SE10      30.14F
INDIANAPOLIS   PTSUNNY   37  30  75 E8        30.10F

$$
MIZ043>046-050>051-056>058-064>065-071>073-077>080-041600-
SOUTHWEST LOWER MICHIGAN

CITY           SKY/WX    TMP DP  RH WIND       PRES   REMARKS
BATTLE CREEK   CLOUDY    33  27  78 SE8       30.17F WCI  26
BENTON HARBOR  CLOUDY    35  26  69 SE7       30.17F HAZE    WCI  29
COLDWATER*     CLOUDY    34  26  71 MISG      30.18S
HILLSDALE*     CLOUDY    32  27  80 SE5       30.17F WCI  27
HOLLAND        CLOUDY    34  27  75 SE6       30.17F WCI  29
GRAND RAPIDS   CLOUDY    34  27  75 SE6       30.18F WCI  29
KALAMAZOO      CLOUDY    34  26  72 SE5       30.17F HAZE    WCI  30
STURGIS*       CLOUDY    34  26  73 SE8       30.16F WCI  27
THREE RIVERS*  CLOUDY    34  29  83 SE7       30.18F WCI  28

$$
OHZ001>008-015>018-024>025-041600-
NORTHWEST OHIO

CITY           SKY/WX    TMP DP  RH WIND       PRES   REMARKS
WAUSEON*       CLOUDY    36  28  75 E6        30.20F
DEFIANCE       CLOUDY    37  27  67 SE5       30.20F
FINDLAY        MOSUNNY   36  27  69 SE9       30.20S
TOLEDO EXPRESS CLOUDY    35  28  75 E5        30.21F WCI  31
TOLEDO METCALF CLOUDY    36  30  79 SE5       30.23F
LIMA           PTSUNNY   35  30  82 SE6       30.19S WCI  30

$$
AND FOR LAKE MICHIGAN COASTAL AND OPEN LAKE BUOY OBSERVATIONS

STATION/POSITION TEMP    WIND        PRES    VSBY  WAVE
                 AIR SEA DIR/SP/G                  HT/PER
                 (F)     (DEG/KT/KT) (MB)    (MI)  (FT/S)
CALUMET HARBOR    34     130/  7/  9 1019.8F
BURNS HARBOR      34     100/  7/  8 1021.3F
SAINT JOSEPH      35      CALM  /  4 1021.7
SOUTH LAKE BUOY   38 48  140/  6/ 10 1021.0F         0

$$
&&




USA.gov is the U.S. government's official web portal to all federal, state and local government web resources and services.